Weather History for Thermal, CA

Change the Weather History Date:

Monday, February 24, 2014

  Actual Average Record
Temperature  
Mean Temperature 62 °F 60 °F  
Max Temperature 83 °F 77 °F 95 °F (1986)
Min Temperature 40 °F 43 °F 31 °F (1996)
Degree Days  
Heating Degree Days 3 6  
Month to date heating degree days 110 184  
Since 1 July heating degree days 783 1044  
Cooling Degree Days 0 1  
Month to date cooling degree days 6 4  
Year to date cooling degree days 6 6  
Growing Degree Days 12 (Base 50)    
Moisture  
Dew Point 32 °F    
Average Humidity 40    
Maximum Humidity 65    
Minimum Humidity 14    
Precipitation  
Precipitation 0.00 in 0.03 in 0.16 in (1987)
Month to date precipitation 0.00 0.57  
Year to date precipitation T 1.24  
Since 1 July precipitation 1.47 2.62  
Snow  
Snow 0.00 in - - ()
Month to date snowfall 0.0  
Year to date snowfall 0.0  
Since 1 July snowfall 0.0  
Snow Depth 0.00 in    
Sea Level Pressure  
Sea Level Pressure 29.92 in    
Wind  
Wind Speed 4 mph (NE)    
Max Wind Speed 12 mph    
Max Gust Speed 14 mph    
Visibility 10 miles    
Events      
T = Trace of Precipitation, MM = Missing Value Source: NWS Daily Summary

Daily Weather History Graph

Daily Weather History Graph

Search for Another Location

Airport:

Trip Planner

Search our weather history database for the weather conditions in past years. The results will help you decide how hot, cold, wet, or windy it might be!

Date:

Astronomy

Feb. 24, 2014 Rise Set
Actual Time 6:18 AM PST 5:37 PM PST
Civil Twilight 5:53 AM PST 6:02 PM PST
Nautical Twilight 5:24 AM PST 6:31 PM PST
Astronomical Twilight 4:56 AM PST 7:00 PM PST
Moon 2:13 AM PST (2/24) 12:51 PM PST (2/24)
Length of Visible Light 12h 08m
Length of Day
11h 18m
Waning Crescent, 27% of the Moon is Illuminated
Feb 24
Waning Crescent
Mar 1
New
Mar 8
First Quarter
Mar 16
Full
Mar 23
Last Quarter

Hourly Weather History & Observations

Time (PST) Temp. Windchill Dew Point Humidity Pressure Visibility Wind Dir Wind Speed Gust Speed Precip Events Conditions
12:52 AM 48.9 °F - 30.0 °F 48% 29.92 in 10.0 mi North 4.6 mph - N/A   Clear
1:52 AM 52.0 °F - 28.9 °F 41% 29.91 in 10.0 mi NNW 4.6 mph - N/A   Clear
2:52 AM 45.0 °F - 28.9 °F 53% 29.90 in 10.0 mi Calm Calm - N/A   Clear
3:52 AM 48.9 °F - 28.0 °F 44% 29.90 in 10.0 mi North 3.5 mph - N/A   Clear
4:52 AM 41.0 °F - 30.0 °F 65% 29.91 in 10.0 mi Calm Calm - N/A   Clear
5:52 AM 46.0 °F 43.9 °F 30.9 °F 56% 29.94 in 10.0 mi SSE 4.6 mph - N/A   Clear
6:52 AM 45.0 °F 41.8 °F 33.1 °F 63% 29.95 in 10.0 mi WNW 5.8 mph - N/A   Clear
7:52 AM 57.0 °F - 37.0 °F 47% 29.97 in 10.0 mi NNE 3.5 mph - N/A   Clear
8:52 AM 64.9 °F - 42.1 °F 43% 29.99 in 10.0 mi Calm Calm - N/A   Clear
9:52 AM 69.1 °F - 39.0 °F 33% 29.99 in 10.0 mi Variable 3.5 mph - N/A   Clear
10:52 AM 73.9 °F - 36.0 °F 25% 29.98 in 10.0 mi Variable 4.6 mph - N/A   Clear
11:52 AM 77.0 °F - 33.1 °F 20% 29.94 in 10.0 mi Calm Calm - N/A   Clear
12:52 PM 80.1 °F - 35.1 °F 20% 29.91 in 10.0 mi North - - N/A   Clear
1:52 PM 82.9 °F - 28.9 °F 14% 29.88 in 10.0 mi SE 10.4 mph - N/A   Clear
2:52 PM 82.0 °F - 28.9 °F 14% 29.86 in 10.0 mi SE 6.9 mph - N/A   Clear
3:52 PM 81.0 °F - 26.1 °F 13% 29.86 in 10.0 mi SE 8.1 mph - N/A   Clear
4:52 PM 78.1 °F - 25.0 °F 14% 29.86 in 10.0 mi SSE 4.6 mph - N/A   Clear
5:52 PM 66.0 °F - 28.0 °F 24% 29.87 in 10.0 mi South 3.5 mph - N/A   Clear
6:52 PM 60.1 °F - 33.1 °F 36% 29.88 in 10.0 mi SSW 3.5 mph - N/A   Clear
7:52 PM 57.0 °F - 33.1 °F 40% 29.90 in 10.0 mi Calm Calm - N/A   Clear
8:52 PM 55.9 °F - 35.1 °F 45% 29.91 in 10.0 mi NNE 3.5 mph - N/A   Clear
9:52 PM 55.0 °F - 37.0 °F 51% 29.92 in 10.0 mi North 5.8 mph - N/A   Clear
10:52 PM 54.0 °F - 35.1 °F 49% 29.93 in 10.0 mi NNW 4.6 mph - N/A   Clear
11:52 PM 51.1 °F - 35.1 °F 54% 29.92 in 10.0 mi North 3.5 mph - N/A   Clear